QPF
0.00 0.00 0.00 0.00 0.00 0.00 0.01 0.01 0.01 0.00 0.00 0.00 0.00 0.00 0.00 0.00 0.00 0.00 0.00 0.00 0.00 0.00 0.00 0.00 0.01 0.01 0.01 0.01 0.02 0.02 0.03 0.03 0.02 0.02 0.02 0.02 0.02 0.02 0.02 0.02 0.03 0.02 0.01 0.02
0.00 0.00 0.00 0.00 0.00 0.00 0.00 0.00 0.00 0.00 0.00 0.00 0.00 0.00 0.00 0.00 0.00 0.00 0.00 0.00 0.00 0.00 0.01 0.01 0.01 0.01 0.01 0.01 0.01 0.02 0.02 0.02 0.02 0.01 0.01 0.02 0.02 0.02 0.02 0.02 0.03 0.03 0.03 0.03
0.01 0.00 0.00 0.00 0.00 0.00 0.00 0.00 0.00 0.00 0.00 0.00 0.00 0.00 0.00 0.00 0.00 0.00 0.00 0.00 0.00 0.00 0.00 0.01 0.01 0.01 0.01 0.01 0.01 0.01 0.01 0.01 0.01 0.01 0.01 0.01 0.02 0.02 0.02 0.02 0.03 0.03 0.04 0.05
0.02 0.01 0.01 0.00 0.00 0.00 0.00 0.00 0.00 0.00 0.00 0.00 0.00 0.00 0.00 0.00 0.00 0.00 0.00 0.00 0.00 0.00 0.00 0.01 0.01 0.01 0.01 0.01 0.01 0.01 0.01 0.01 0.01 0.01 0.02 0.02 0.02 0.01 0.02 0.02 0.03 0.03 0.03 0.04
0.03 0.02 0.01 0.00 0.00 0.00 0.00 0.00 0.00 0.00 0.00 0.00 0.00 0.00 0.00 0.00 0.00 0.00 0.00 0.00 0.00 0.00 0.00 0.01 0.01 0.00 0.01 0.01 0.00 0.01 0.01 0.01 0.02 0.02 0.02 0.02 0.01 0.01 0.01 0.02 0.02 0.02 0.02 0.02
0.03 0.02 0.01 0.00 0.00 0.00 0.00 0.00 0.00 0.00 0.00 0.00 0.00 0.00 0.00 0.00 0.00 0.00 0.00 0.00 0.00 0.00 0.00 0.00 0.01 0.00 0.00 0.00 0.00 0.00 0.01 0.01 0.01 0.02 0.02 0.02 0.01 0.01 0.01 0.01 0.01 0.01 0.01 0.01
0.02 0.02 0.00 0.00 0.00 0.00 0.00 0.00 0.00 0.00 0.00 0.00 0.00 0.00 0.00 0.00 0.00 0.00 0.00 0.00 0.00 0.00 0.00 0.00 0.00 0.01 0.01 0.00 0.00 0.00 0.00 0.01 0.01 0.01 0.01 0.01 0.01 0.01 0.01 0.01 0.01 0.01 0.01 0.00
0.01 0.02 0.01 0.00 0.00 0.00 0.00 0.00 0.00 0.00 0.00 0.00 0.00 0.00 0.00 0.00 0.00 0.00 0.00 0.00 0.00 0.00 0.00 0.00 0.00 0.01 0.01 0.01 0.00 0.00 0.00 0.00 0.00 0.01 0.01 0.01 0.01 0.01 0.01 0.01 0.01 0.01 0.00 0.00
0.01 0.01 0.00 0.00 0.00 0.00 0.00 0.00 0.00 0.00 0.00 0.00 0.00 0.00 0.00 0.00 0.00 0.00 0.00 0.00 0.00 0.00 0.00 0.00 0.00 0.00 0.01 0.01 0.01 0.01 0.01 0.00 0.00 0.00 0.01 0.01 0.01 0.01 0.01 0.01 0.01 0.00 0.00 0.00
0.00 0.00 0.00 0.00 0.00 0.00 0.00 0.00 0.00 0.00 0.00 0.00 0.00 0.00 0.00 0.00 0.00 0.00 0.00 0.00 0.00 0.00 0.00 0.00 0.00 0.00 0.01 0.01 0.01 0.01 0.01 0.00 0.00 0.00 0.00 0.01 0.00 0.00 0.00 0.01 0.00 0.00 0.00 0.00
0.01 0.00 0.00 0.00 0.00 0.00 0.00 0.00 0.00 0.00 0.00 0.00 0.00 0.00 0.00 0.00 0.00 0.00 0.00 0.00 0.00 0.00 0.00 0.00 0.00 0.00 0.01 0.01 0.01 0.01 0.00 0.01 0.00 0.00 0.00 0.00 0.00 0.00 0.00 0.00 0.00 0.00 0.00 0.00
0.00 0.00 0.00 0.00 0.00 0.00 0.00 0.00 0.00 0.00 0.00 0.00 0.00 0.00 0.00 0.00 0.00 0.00 0.00 0.00 0.00 0.00 0.00 0.00 0.00 0.01 0.01 0.01 0.01 0.00 0.00 0.00 0.00 0.00 0.00 0.00 0.00 0.00 0.00 0.00 0.00 0.00 0.00 0.00
0.00 0.00 0.00 0.00 0.00 0.00 0.00 0.00 0.00 0.00 0.00 0.00 0.00 0.00 0.00 0.00 0.00 0.00 0.00 0.00 0.00 0.00 0.00 0.00 0.00 0.01 0.01 0.01 0.01 0.00 0.00 0.00 0.00 0.00 0.00 0.00 0.00 0.01 0.00 0.00 0.00 0.00 0.00 0.00
0.00 0.00 0.00 0.00 0.00 0.00 0.00 0.00 0.00 0.00 0.00 0.00 0.00 0.00 0.00 0.00 0.00 0.00 0.00 0.00 0.00 0.00 0.00 0.00 0.00 0.00 0.01 0.01 0.01 0.01 0.00 0.00 0.00 0.00 0.00 0.00 0.00 0.01 0.01 0.01 0.00 0.00 0.00 0.00
0.00 0.00 0.00 0.00 0.00 0.00 0.00 0.00 0.00 0.00 0.00 0.00 0.00 0.00 0.00 0.00 0.00 0.00 0.00 0.00 0.00 0.00 0.00 0.00 0.00 0.00 0.00 0.01 0.01 0.01 0.01 0.00 0.00 0.00 0.00 0.00 0.00 0.00 0.01 0.01 0.01 0.01 0.00 0.00
0.00 0.00 0.00 0.00 0.00 0.00 0.00 0.00 0.00 0.00 0.00 0.00 0.00 0.00 0.00 0.00 0.00 0.00 0.00 0.00 0.00 0.00 0.00 0.00 0.00 0.00 0.00 0.01 0.01 0.01 0.01 0.01 0.01 0.00 0.00 0.00 0.00 0.01 0.01 0.01 0.01 0.01 0.01 0.00
0.01 0.01 0.01 0.01 0.00 0.00 0.00 0.00 0.00 0.00 0.00 0.00 0.00 0.00 0.00 0.00 0.00 0.00 0.00 0.00 0.00 0.00 0.00 0.00 0.00 0.00 0.00 0.01 0.01 0.01 0.01 0.01 0.01 0.01 0.01 0.01 0.01 0.01 0.01 0.01 0.01 0.01 0.01 0.00
0.01 0.01 0.01 0.01 0.01 0.01 0.00 0.00 0.00 0.00 0.00 0.00 0.00 0.00 0.00 0.00 0.00 0.00 0.00 0.00 0.00 0.00 0.00 0.00 0.00 0.00 0.00 0.01 0.01 0.01 0.01 0.01 0.01 0.01 0.01 0.01 0.01 0.01 0.01 0.01 0.01 0.01 0.01 0.01
0.01 0.01 0.01 0.01 0.01 0.01 0.00 0.00 0.00 0.00 0.00 0.00 0.00 0.00 0.00 0.00 0.00 0.00 0.00 0.00 0.00 0.00 0.00 0.00 0.00 0.01 0.01 0.01 0.01 0.01 0.01 0.01 0.01 0.01 0.01 0.01 0.01 0.02 0.02 0.01 0.01 0.01 0.01 0.01
0.00 0.00 0.00 0.00 0.00 0.00 0.00 0.00 0.00 0.00 0.00 0.00 0.00 0.00 0.00 0.00 0.00 0.00 0.00 0.00 0.00 0.00 0.00 0.00 0.00 0.00 0.00 0.00 0.00 0.00 0.01 0.01 0.01 0.01 0.01 0.01 0.01 0.01 0.01 0.01 0.01 0.01 0.01 0.01
0.00 0.00 0.00 0.00 0.00 0.00 0.00 0.00 0.00 0.00 0.00 0.00 0.00 0.00 0.00 0.00 0.00 0.00 0.00 0.00 0.00 0.00 0.00 0.00 0.00 0.00 0.00 0.00 0.00 0.00 0.00 0.00 0.00 0.00 0.01 0.01 0.01 0.01 0.01 0.01 0.01 0.01 0.01 0.01
0.00 0.01 0.01 0.01 0.01 0.00 0.00 0.00 0.00 0.00 0.00 0.00 0.00 0.00 0.00 0.00 0.00 0.00 0.00 0.00 0.00 0.00 0.00 0.00 0.00 0.00 0.00 0.00 0.00 0.00 0.00 0.00 0.01 0.01 0.01 0.01 0.01 0.01 0.01 0.01 0.01 0.01 0.01 0.01
0.00 0.00 0.00 0.01 0.01 0.01 0.01 0.00 0.00 0.00 0.00 0.00 0.00 0.00 0.00 0.00 0.00 0.01 0.00 0.00 0.00 0.00 0.00 0.00 0.00 0.00 0.00 0.00 0.00 0.00 0.00 0.01 0.01 0.01 0.01 0.01 0.01 0.01 0.01 0.01 0.01 0.01 0.01 0.01
0.00 0.00 0.00 0.00 0.01 0.01 0.01 0.00 0.01 0.01 0.00 0.00 0.00 0.00 0.00 0.01 0.00 0.00 0.00 0.00 0.00 0.00 0.00 0.00 0.00 0.00 0.00 0.00 0.00 0.00 0.00 0.01 0.01 0.01 0.01 0.01 0.01 0.01 0.01 0.01 0.01 0.01 0.01 0.01
0.00 0.00 0.00 0.00 0.00 0.01 0.01 0.00 0.01 0.01 0.01 0.01 0.01 0.01 0.01 0.01 0.01 0.01 0.00 0.00 0.00 0.00 0.00 0.00 0.00 0.00 0.00 0.00 0.01 0.01 0.01 0.01 0.01 0.01 0.01 0.01 0.01 0.01 0.00 0.00 0.01 0.00 0.00 0.00
0.00 0.00 0.00 0.00 0.00 0.00 0.00 0.00 0.01 0.01 0.01 0.01 0.01 0.01 0.01 0.01 0.01 0.01 0.00 0.00 0.00 0.00 0.01 0.00 0.00 0.00 0.01 0.01 0.01 0.01 0.01 0.01 0.01 0.01 0.01 0.01 0.01 0.00 0.00 0.00 0.00 0.00 0.00 0.00
0.00 0.00 0.00 0.01 0.01 0.01 0.00 0.00 0.00 0.01 0.01 0.01 0.01 0.01 0.01 0.01 0.01 0.01 0.00 0.00 0.00 0.00 0.01 0.01 0.01 0.01 0.01 0.01 0.01 0.01 0.01 0.01 0.01 0.01 0.01 0.01 0.01 0.00 0.00 0.00 0.00 0.00 0.00 0.00
MSLP
1021.86 1021.92 1021.94 1021.89 1021.71 1021.35 1020.79 1020.02 1019.06 1017.96 1016.79 1015.63 1014.59 1013.73 1013.10 1012.72 1012.59 1012.67 1012.89 1013.19 1013.51 1013.80 1014.03 1014.21 1014.33 1014.45 1014.57 1014.73 1014.95 1015.22 1015.53 1015.86 1016.19 1016.49 1016.74 1016.94 1017.08 1017.17 1017.22 1017.24 1017.22 1017.17 1017.08 1016.96
1021.65 1021.53 1021.33 1021.03 1020.61 1020.04 1019.34 1018.50 1017.56 1016.56 1015.56 1014.62 1013.80 1013.15 1012.69 1012.41 1012.31 1012.35 1012.49 1012.67 1012.87 1013.05 1013.21 1013.35 1013.49 1013.65 1013.84 1014.08 1014.37 1014.70 1015.06 1015.41 1015.74 1016.04 1016.29 1016.48 1016.63 1016.74 1016.82 1016.87 1016.89 1016.89 1016.84 1016.75
1021.29 1020.96 1020.53 1020.00 1019.37 1018.63 1017.82 1016.96 1016.07 1015.21 1014.41 1013.70 1013.11 1012.67 1012.37 1012.19 1012.12 1012.12 1012.17 1012.25 1012.33 1012.40 1012.49 1012.59 1012.73 1012.93 1013.17 1013.48 1013.82 1014.20 1014.57 1014.93 1015.25 1015.53 1015.75 1015.93 1016.08 1016.21 1016.31 1016.41 1016.48 1016.53 1016.53 1016.49
1020.77 1020.25 1019.62 1018.89 1018.09 1017.23 1016.36 1015.51 1014.72 1014.01 1013.41 1012.93 1012.57 1012.32 1012.16 1012.06 1012.01 1011.97 1011.94 1011.91 1011.88 1011.86 1011.87 1011.94 1012.08 1012.29 1012.57 1012.91 1013.29 1013.68 1014.05 1014.39 1014.68 1014.92 1015.12 1015.29 1015.44 1015.58 1015.73 1015.87 1016.00 1016.11 1016.17 1016.18
1020.10 1019.42 1018.64 1017.77 1016.85 1015.93 1015.06 1014.26 1013.58 1013.03 1012.62 1012.34 1012.17 1012.08 1012.03 1011.99 1011.94 1011.86 1011.75 1011.62 1011.49 1011.39 1011.34 1011.38 1011.50 1011.71 1012.00 1012.35 1012.73 1013.10 1013.45 1013.75 1014.01 1014.22 1014.39 1014.55 1014.72 1014.89 1015.08 1015.28 1015.48 1015.64 1015.76 1015.81
1019.29 1018.50 1017.61 1016.67 1015.71 1014.79 1013.95 1013.24 1012.68 1012.27 1012.03 1011.90 1011.87 1011.89 1011.91 1011.90 1011.84 1011.72 1011.54 1011.33 1011.12 1010.95 1010.85 1010.85 1010.95 1011.15 1011.43 1011.76 1012.11 1012.45 1012.76 1013.02 1013.24 1013.42 1013.58 1013.75 1013.94 1014.16 1014.41 1014.67 1014.92 1015.14 1015.30 1015.38
1018.35 1017.50 1016.58 1015.62 1014.68 1013.80 1013.03 1012.42 1011.97 1011.69 1011.56 1011.55 1011.61 1011.68 1011.73 1011.73 1011.64 1011.47 1011.24 1010.97 1010.72 1010.50 1010.37 1010.33 1010.41 1010.58 1010.82 1011.12 1011.43 1011.72 1011.98 1012.20 1012.39 1012.56 1012.73 1012.92 1013.15 1013.43 1013.74 1014.06 1014.37 1014.63 1014.82 1014.92
1017.29 1016.44 1015.54 1014.62 1013.74 1012.94 1012.26 1011.74 1011.39 1011.20 1011.14 1011.18 1011.28 1011.37 1011.42 1011.39 1011.28 1011.08 1010.81 1010.52 1010.23 1010.00 1009.85 1009.80 1009.84 1009.98 1010.19 1010.44 1010.69 1010.93 1011.15 1011.33 1011.50 1011.67 1011.87 1012.10 1012.39 1012.73 1013.10 1013.48 1013.83 1014.13 1014.33 1014.42
1016.13 1015.32 1014.48 1013.64 1012.85 1012.14 1011.56 1011.13 1010.84 1010.70 1010.67 1010.73 1010.81 1010.89 1010.91 1010.86 1010.72 1010.51 1010.24 1009.94 1009.66 1009.44 1009.29 1009.23 1009.26 1009.37 1009.53 1009.73 1009.93 1010.12 1010.30 1010.46 1010.63 1010.82 1011.05 1011.34 1011.69 1012.09 1012.52 1012.94 1013.33 1013.64 1013.84 1013.92
1014.89 1014.14 1013.38 1012.64 1011.95 1011.35 1010.85 1010.48 1010.23 1010.10 1010.07 1010.10 1010.16 1010.20 1010.19 1010.12 1009.97 1009.76 1009.52 1009.25 1009.01 1008.81 1008.69 1008.64 1008.66 1008.74 1008.87 1009.02 1009.17 1009.33 1009.48 1009.64 1009.82 1010.04 1010.32 1010.67 1011.08 1011.54 1012.01 1012.47 1012.86 1013.17 1013.36 1013.41
1013.58 1012.91 1012.24 1011.59 1011.00 1010.48 1010.05 1009.71 1009.48 1009.34 1009.28 1009.27 1009.28 1009.28 1009.25 1009.17 1009.05 1008.87 1008.68 1008.47 1008.29 1008.15 1008.06 1008.02 1008.05 1008.12 1008.21 1008.33 1008.45 1008.58 1008.72 1008.89 1009.10 1009.37 1009.70 1010.11 1010.57 1011.07 1011.58 1012.05 1012.44 1012.73 1012.89 1012.93
1012.24 1011.63 1011.04 1010.48 1009.96 1009.50 1009.10 1008.78 1008.54 1008.38 1008.28 1008.22 1008.20 1008.17 1008.14 1008.08 1007.99 1007.88 1007.76 1007.64 1007.53 1007.45 1007.41 1007.40 1007.43 1007.49 1007.57 1007.66 1007.77 1007.89 1008.05 1008.24 1008.49 1008.80 1009.19 1009.65 1010.16 1010.69 1011.20 1011.67 1012.05 1012.32 1012.46 1012.47
1010.90 1010.35 1009.82 1009.31 1008.84 1008.41 1008.03 1007.70 1007.44 1007.24 1007.10 1007.01 1006.97 1006.94 1006.92 1006.91 1006.89 1006.85 1006.82 1006.79 1006.76 1006.75 1006.76 1006.78 1006.82 1006.88 1006.95 1007.03 1007.13 1007.27 1007.44 1007.67 1007.96 1008.33 1008.77 1009.27 1009.81 1010.35 1010.87 1011.32 1011.68 1011.93 1012.05 1012.05
1009.61 1009.10 1008.61 1008.14 1007.68 1007.26 1006.87 1006.52 1006.23 1006.00 1005.83 1005.72 1005.67 1005.67 1005.69 1005.74 1005.79 1005.85 1005.91 1005.97 1006.02 1006.07 1006.11 1006.16 1006.21 1006.27 1006.33 1006.41 1006.53 1006.68 1006.89 1007.16 1007.51 1007.92 1008.41 1008.94 1009.50 1010.05 1010.55 1010.99 1011.33 1011.56 1011.67 1011.69
1008.45 1007.96 1007.49 1007.02 1006.56 1006.12 1005.70 1005.32 1005.00 1004.74 1004.56 1004.45 1004.42 1004.45 1004.53 1004.65 1004.79 1004.94 1005.09 1005.22 1005.33 1005.42 1005.50 1005.56 1005.61 1005.67 1005.73 1005.82 1005.95 1006.13 1006.38 1006.69 1007.09 1007.55 1008.08 1008.63 1009.20 1009.75 1010.25 1010.67 1011.00 1011.22 1011.35 1011.39
1007.47 1007.00 1006.53 1006.05 1005.57 1005.10 1004.64 1004.23 1003.88 1003.60 1003.41 1003.31 1003.31 1003.39 1003.54 1003.73 1003.95 1004.18 1004.39 1004.58 1004.73 1004.85 1004.94 1005.00 1005.05 1005.09 1005.16 1005.25 1005.40 1005.62 1005.90 1006.27 1006.71 1007.21 1007.77 1008.34 1008.92 1009.46 1009.95 1010.37 1010.69 1010.93 1011.08 1011.16
1006.74 1006.27 1005.80 1005.30 1004.79 1004.28 1003.79 1003.35 1002.97 1002.68 1002.49 1002.41 1002.44 1002.57 1002.78 1003.03 1003.31 1003.60 1003.86 1004.08 1004.26 1004.38 1004.46 1004.51 1004.55 1004.58 1004.64 1004.75 1004.92 1005.16 1005.48 1005.89 1006.36 1006.90 1007.48 1008.07 1008.65 1009.19 1009.68 1010.09 1010.43 1010.69 1010.88 1011.02
1006.28 1005.82 1005.34 1004.83 1004.29 1003.74 1003.22 1002.74 1002.35 1002.05 1001.86 1001.80 1001.86 1002.03 1002.28 1002.58 1002.90 1003.22 1003.51 1003.74 1003.92 1004.03 1004.10 1004.13 1004.14 1004.17 1004.22 1004.33 1004.52 1004.79 1005.14 1005.57 1006.08 1006.64 1007.23 1007.83 1008.41 1008.96 1009.45 1009.88 1010.24 1010.53 1010.77 1010.96
1006.08 1005.64 1005.16 1004.64 1004.08 1003.51 1002.96 1002.46 1002.05 1001.74 1001.56 1001.51 1001.59 1001.78 1002.05 1002.37 1002.72 1003.05 1003.33 1003.56 1003.72 1003.82 1003.86 1003.87 1003.87 1003.88 1003.93 1004.05 1004.25 1004.53 1004.91 1005.37 1005.89 1006.46 1007.06 1007.66 1008.25 1008.80 1009.29 1009.74 1010.12 1010.45 1010.74 1010.98
1006.08 1005.67 1005.20 1004.68 1004.11 1003.53 1002.97 1002.46 1002.03 1001.72 1001.53 1001.49 1001.57 1001.77 1002.05 1002.37 1002.71 1003.03 1003.31 1003.52 1003.66 1003.73 1003.76 1003.75 1003.73 1003.74 1003.79 1003.92 1004.13 1004.43 1004.81 1005.28 1005.81 1006.39 1006.99 1007.59 1008.17 1008.72 1009.22 1009.68 1010.09 1010.46 1010.78 1011.07
1006.20 1005.82 1005.38 1004.87 1004.31 1003.73 1003.17 1002.66 1002.23 1001.91 1001.72 1001.67 1001.74 1001.93 1002.19 1002.50 1002.82 1003.12 1003.38 1003.57 1003.69 1003.75 1003.77 1003.75 1003.73 1003.75 1003.81 1003.94 1004.16 1004.47 1004.87 1005.34 1005.86 1006.43 1007.02 1007.61 1008.19 1008.74 1009.25 1009.72 1010.15 1010.53 1010.88 1011.19
1006.31 1005.98 1005.57 1005.09 1004.56 1004.01 1003.46 1002.96 1002.53 1002.21 1002.02 1001.95 1002.01 1002.17 1002.41 1002.70 1002.99 1003.27 1003.50 1003.68 1003.79 1003.85 1003.87 1003.86 1003.86 1003.89 1003.97 1004.12 1004.35 1004.66 1005.06 1005.52 1006.04 1006.60 1007.17 1007.75 1008.31 1008.85 1009.35 1009.82 1010.26 1010.66 1011.02 1011.34
1006.32 1006.04 1005.68 1005.25 1004.76 1004.24 1003.73 1003.25 1002.84 1002.53 1002.33 1002.25 1002.29 1002.43 1002.64 1002.89 1003.16 1003.41 1003.63 1003.81 1003.92 1003.99 1004.03 1004.05 1004.08 1004.13 1004.24 1004.41 1004.66 1004.98 1005.37 1005.83 1006.33 1006.87 1007.42 1007.97 1008.51 1009.03 1009.53 1009.99 1010.42 1010.81 1011.16 1011.46
1006.14 1005.91 1005.61 1005.24 1004.81 1004.35 1003.88 1003.44 1003.07 1002.77 1002.58 1002.49 1002.51 1002.63 1002.81 1003.04 1003.29 1003.53 1003.75 1003.92 1004.06 1004.16 1004.23 1004.29 1004.36 1004.46 1004.60 1004.79 1005.06 1005.39 1005.78 1006.22 1006.71 1007.22 1007.74 1008.27 1008.78 1009.27 1009.74 1010.18 1010.59 1010.96 1011.28 1011.55
1005.72 1005.56 1005.33 1005.02 1004.67 1004.27 1003.87 1003.49 1003.15 1002.89 1002.71 1002.63 1002.64 1002.74 1002.91 1003.12 1003.36 1003.60 1003.82 1004.02 1004.19 1004.33 1004.45 1004.56 1004.68 1004.83 1005.01 1005.24 1005.52 1005.86 1006.24 1006.67 1007.14 1007.62 1008.11 1008.60 1009.08 1009.54 1009.97 1010.38 1010.75 1011.08 1011.36 1011.59
1005.07 1004.96 1004.80 1004.57 1004.29 1003.98 1003.65 1003.33 1003.06 1002.84 1002.69 1002.63 1002.65 1002.75 1002.91 1003.12 1003.36 1003.61 1003.86 1004.10 1004.31 1004.50 1004.68 1004.85 1005.03 1005.22 1005.45 1005.71 1006.01 1006.35 1006.73 1007.15 1007.59 1008.04 1008.49 1008.94 1009.38 1009.80 1010.19 1010.55 1010.87 1011.15 1011.38 1011.55
1004.19 1004.15 1004.05 1003.90 1003.70 1003.47 1003.22 1002.98 1002.77 1002.61 1002.50 1002.47 1002.52 1002.64 1002.81 1003.04 1003.30 1003.58 1003.86 1004.14 1004.41 1004.66 1004.90 1005.14 1005.37 1005.62 1005.89 1006.18 1006.50 1006.85 1007.22 1007.61 1008.02 1008.44 1008.86 1009.26 1009.65 1010.02 1010.36 1010.67 1010.94 1011.16 1011.33 1011.44
Thickness
5503 5507 5504 5507 5510 5505 5500 5502 5501 5520 5522 5545 5541 5536 5537 5537 5535 5534 5533 5532 5530 5528 5526 5524 5522 5521 5520 5520 5520 5520 5519 5519 5519 5520 5520 5521 5522 5523 5524 5525 5526 5527 5527 5528
5498 5505 5501 5505 5514 5511 5509 5509 5511 5517 5529 5544 5536 5531 5530 5530 5530 5531 5532 5532 5530 5528 5525 5524 5522 5521 5519 5518 5517 5516 5515 5515 5515 5515 5515 5515 5516 5517 5518 5518 5519 5519 5520 5521
5491 5494 5497 5509 5525 5519 5513 5514 5512 5516 5532 5535 5530 5529 5528 5529 5529 5530 5531 5530 5529 5528 5526 5524 5522 5520 5518 5517 5515 5513 5512 5512 5512 5511 5511 5511 5511 5511 5512 5512 5512 5512 5513 5513
5479 5483 5493 5532 5533 5524 5517 5519 5517 5523 5527 5526 5526 5527 5526 5526 5526 5527 5528 5527 5527 5526 5525 5523 5521 5518 5516 5514 5511 5510 5509 5509 5508 5508 5507 5507 5506 5506 5506 5506 5506 5506 5506 5507
5471 5472 5490 5521 5525 5517 5512 5519 5523 5520 5524 5523 5520 5518 5524 5529 5527 5527 5526 5526 5525 5525 5523 5521 5519 5516 5513 5511 5509 5507 5507 5506 5506 5505 5504 5502 5502 5502 5501 5501 5500 5500 5500 5500
5463 5466 5484 5521 5524 5516 5514 5516 5527 5518 5517 5516 5513 5511 5523 5529 5525 5524 5523 5522 5522 5521 5519 5517 5516 5512 5510 5508 5506 5506 5506 5505 5503 5501 5500 5499 5498 5497 5496 5496 5495 5495 5495 5494
5459 5461 5483 5508 5511 5509 5504 5519 5525 5515 5513 5508 5505 5513 5520 5520 5519 5520 5520 5519 5519 5517 5515 5515 5512 5508 5506 5505 5505 5506 5504 5501 5499 5497 5496 5494 5493 5492 5491 5489 5488 5488 5488 5488
5456 5458 5483 5507 5497 5498 5508 5513 5513 5511 5508 5504 5504 5507 5508 5510 5512 5513 5514 5514 5514 5511 5511 5510 5507 5505 5504 5504 5505 5501 5499 5497 5495 5493 5491 5490 5487 5486 5484 5483 5481 5481 5480 5480
5470 5488 5500 5495 5496 5500 5499 5498 5500 5501 5502 5500 5500 5501 5503 5505 5507 5507 5508 5508 5507 5506 5507 5506 5504 5502 5502 5504 5500 5497 5494 5492 5490 5488 5486 5484 5482 5480 5478 5476 5474 5474 5473 5473
5459 5480 5487 5488 5488 5490 5489 5488 5491 5492 5493 5493 5494 5497 5499 5501 5502 5503 5503 5503 5502 5500 5501 5502 5501 5500 5500 5500 5496 5493 5490 5487 5485 5482 5480 5478 5476 5475 5473 5470 5469 5468 5466 5466
5456 5474 5476 5485 5486 5487 5485 5484 5483 5485 5486 5487 5489 5492 5494 5496 5498 5499 5499 5499 5497 5496 5498 5499 5498 5497 5497 5494 5491 5489 5486 5483 5480 5477 5475 5472 5470 5469 5468 5467 5465 5464 5462 5460
5467 5475 5468 5477 5481 5479 5476 5477 5478 5478 5482 5484 5483 5486 5489 5491 5493 5494 5494 5494 5493 5493 5493 5494 5493 5493 5492 5490 5487 5484 5481 5478 5475 5472 5469 5466 5464 5461 5462 5460 5460 5459 5457 5454
5466 5468 5464 5468 5470 5470 5468 5470 5471 5472 5475 5478 5481 5481 5482 5485 5487 5488 5488 5488 5489 5489 5490 5489 5489 5488 5487 5484 5482 5480 5478 5475 5471 5468 5464 5461 5458 5456 5454 5452 5451 5451 5449 5448
5454 5451 5451 5457 5459 5461 5461 5463 5464 5466 5468 5470 5473 5475 5475 5477 5479 5480 5483 5484 5484 5483 5483 5483 5482 5483 5482 5479 5476 5475 5472 5470 5467 5463 5460 5456 5453 5451 5448 5445 5442 5440 5440 5439
5444 5442 5444 5448 5449 5450 5451 5452 5453 5457 5460 5462 5464 5465 5467 5469 5472 5475 5476 5476 5475 5475 5476 5475 5476 5477 5475 5472 5470 5468 5465 5463 5460 5457 5453 5450 5447 5443 5441 5438 5436 5433 5430 5429
5433 5434 5434 5434 5437 5440 5440 5440 5442 5448 5451 5453 5455 5458 5460 5461 5464 5466 5467 5466 5465 5468 5469 5469 5470 5470 5467 5465 5463 5461 5458 5457 5454 5449 5446 5442 5439 5436 5433 5431 5428 5426 5423 5421
5417 5421 5423 5425 5428 5430 5431 5433 5436 5439 5442 5444 5447 5450 5450 5452 5453 5456 5457 5457 5458 5460 5461 5461 5462 5461 5459 5458 5456 5454 5451 5448 5446 5442 5439 5436 5433 5430 5427 5424 5421 5419 5416 5414
5409 5412 5414 5415 5418 5421 5424 5427 5428 5431 5434 5437 5438 5439 5440 5442 5445 5448 5448 5448 5447 5449 5450 5451 5451 5451 5450 5449 5447 5445 5442 5440 5437 5434 5432 5429 5425 5422 5419 5416 5413 5410 5408 5405
5399 5401 5403 5406 5408 5410 5414 5417 5420 5422 5425 5427 5427 5429 5432 5434 5436 5438 5437 5437 5437 5439 5443 5442 5442 5441 5441 5440 5438 5436 5434 5431 5429 5426 5423 5421 5418 5414 5411 5408 5405 5402 5399 5396
5388 5391 5393 5395 5399 5401 5404 5408 5410 5413 5415 5417 5418 5419 5421 5424 5426 5426 5426 5428 5432 5434 5434 5433 5433 5432 5431 5430 5430 5427 5425 5423 5421 5418 5414 5412 5409 5406 5403 5400 5396 5393 5390 5388
5377 5380 5383 5386 5389 5393 5396 5398 5400 5403 5406 5407 5408 5411 5413 5415 5416 5416 5417 5420 5424 5423 5424 5424 5423 5423 5422 5422 5421 5418 5417 5415 5412 5409 5406 5403 5400 5397 5394 5391 5389 5386 5383 5380
5366 5370 5374 5377 5380 5384 5388 5389 5391 5394 5396 5399 5401 5403 5404 5406 5406 5407 5410 5413 5416 5416 5415 5414 5414 5415 5414 5414 5412 5410 5408 5406 5403 5400 5398 5395 5392 5389 5386 5383 5381 5378 5376 5373
5357 5361 5365 5368 5371 5375 5379 5381 5383 5385 5388 5391 5393 5395 5397 5399 5399 5399 5403 5405 5406 5407 5407 5407 5407 5408 5407 5404 5403 5401 5399 5397 5394 5392 5390 5387 5384 5382 5379 5376 5373 5371 5368 5365
5349 5353 5356 5359 5362 5365 5369 5374 5375 5378 5380 5383 5386 5389 5390 5390 5391 5394 5395 5397 5398 5399 5399 5400 5400 5400 5398 5395 5394 5392 5390 5388 5386 5383 5381 5378 5375 5373 5370 5368 5365 5363 5360 5357
5341 5343 5347 5350 5353 5359 5363 5365 5367 5370 5371 5375 5379 5381 5383 5384 5385 5387 5387 5388 5390 5391 5391 5392 5393 5392 5389 5387 5385 5384 5382 5380 5378 5375 5373 5370 5367 5365 5362 5360 5357 5355 5352 5350
5334 5337 5341 5345 5349 5352 5354 5356 5359 5362 5365 5368 5372 5374 5376 5377 5378 5379 5379 5380 5381 5383 5382 5383 5383 5382 5380 5378 5376 5375 5373 5372 5370 5367 5364 5362 5360 5357 5355 5352 5350 5347 5345 5342
5328 5331 5334 5339 5343 5345 5347 5349 5352 5356 5358 5361 5364 5367 5368 5369 5370 5371 5371 5372 5373 5373 5373 5373 5373 5372 5371 5369 5368 5366 5364 5363 5361 5359 5356 5354 5352 5350 5347 5345 5342 5339 5337 5334